Weather in Kievka

Kazakhstan     50°15′42″N   71°32′53″E
temp.,
°C
wind,
m/s
gust,
m/s
humid.,
%
clouds,
%
prec.,
mm/h
press.,
hPa
HPBL,
m
29 november, mon
mon2900:00−15se22785 0.0 103819
03:00−16sse227754 0.0 103713
06:00−16sse2277100 0.0 103615
09:00−15sse227468 0.0 103412
12:00−8sse35675 0.0 103370
15:00−7sse227526 0.0 103115
18:00−11sse2278100 0.0 103219
21:00−13sse3383100 0.0 103119
30 november, tue
tue3000:00−13s2281100 0.0 103113
03:00−12sse2282100 0.0 103021
06:00−12sse3381100 0.0 102935
09:00−10sse4678100 0.0 102877
12:00−6s3883100 0.0 1028184
15:00−5ssw3687100 0.0 1027138
18:00−10s32925 0.0 102819
21:00−12s33925 0.0 102928
1 december, wed
wed100:00−13s339210 0.0 102934
03:00−13s339210 0.0 102928
06:00−13s22915 0.0 102815
09:00−12sse46855 0.0 102861
12:00−7sse48825 0.0 1027128
15:00−5sse35835 0.0 102566
18:00−10sse34855 0.0 102543
21:00−9sse48825 0.0 102478
2 december, thu
thu200:00−9sse48835 0.0 102386
03:00−8sse410815 0.0 1021110
06:00−6sse5127648 0.0 1020146
09:00−4sse61573100 0.0 1018202
12:000sse71671100 0.0 1016291
15:00+1sse8177048 0.0 1013333
18:00+2s71771100 0.0 1012383
21:00+2s7177084 0.0 1012308
3 december, fri
fri300:00+1s7177497 0.0 1011352
03:00+1ssw61377100 0.0 1011279
06:000sw4688100 0.1 1013169
09:00−3wsw3495100 0.0 101757
12:00−3wnw379595 0.0 1020174
15:00−3wnw3790100 0.0 1022178
18:00−6w3590100 0.0 102585
21:00−11w22925 0.0 102815